QAEM 100 R/B, 58818

Orbit data source: Space-Track

QAEM 100 R/B, 58818 is space debris in LEO originally from a launch on Sat, 20 Jan 2024 UTC launched from the Sharud Missile Test Site (SMTS). Debris objects in space refer to the collection of defunct objects orbiting the Earth. Examples of debris include non-operational satellites, rocket bodies, and fragments generated from explosions, collisions, or faulty payload assembly.

Loading next visibility...
Identifier
58818, 2024-015B
Orbit
LEO
Country
Flag of IRIR / IRAN
Related business
Flag of IRIslamic Revolutionary Guard Corps (IRGC) (IR)
Manufacturer
IRGC
Mission
Spacecraft
Bus & Motor
Unknown
Mass
~200 kg wet, ~200 kg dry
Launch date (UTC)
2024-01-20 (2 years ago)
Launch vehicle
Unknown
Launch site
Sharud Missile Test Site (SMTS)
Object type
Payload
Rocket body
Debris
Shape & HBR
Unknown shape, 0.4 m
Radar Cross Section
Medium (>0.1 m² and <1 m²)

Expand to show TLE details & history
Last TLE update: 2 days ago

TLE from 2 days ago
0 QAEM 100 R/B
1 58818U 24015B   26171.42856183  .00000062  00000-0  49229-4 0  9994
2 58818  64.5033  64.1752 0038206 251.6717 108.0211 14.44300559127374
Epoch: 2026-06-20T10:17Z
TLE epoch observation values (Epoch: 2026-06-20T10:17:07.742Z)
Latitude
-0.00007°
Longitude
1.24959°
Altitude
754.78 km
Speed
7.473 km/s
True Right ascension
04h 16m 42s
True Declination
0° 00' 00"
Sunlit
Object was in daylight at epoch
Visualization orbit readout
Latitude
Unknown
Longitude
Unknown
Altitude
Unknown
Speed
Unknown
Apparent Right ascension
Unknown
Apparent Declination
Unknown
Sunlit
N/A
Visualization observer readout
Local Sidereal Time
21:27:58
Azimuth
Unknown
Elevation
Unknown
Doppler factor
Unknown
Orbital elements
Apogee altitude
770.163 km
Perigee altitude
715.749 km
Semi-major axis
7,121.093 km
Eccentricity
0.00382
Inclination
64.5033°
RAAN
64.1752°
Arg. of periapsis
251.6717°
True anomaly
108.43681°
Mean anomaly
108.0211°
Eccentric anomaly
108.22902°
Mean motion
3.6118 °/min
Orbital period
99.67 mins
BSTAR
0.000049229
Loading maneuver chart data...
Computing Atmospheric mass density...
Loading historical data...
Loading historical data...
Loading historical data...
Loading historical data...
Loading historical data...
Loading historical data...
Loading historical data...
Other satellites on launch #15 in the year 2024 (2024-01-20 UTC)

Documentation

Showing up to 5 results
|